�������l�o���
Date,Time,MP-1(��Sv/h),MP-2(��Sv/h),MP-3(��Sv/h),MP-4(��Sv/h),MP-5(��Sv/h),MP-6(��Sv/h),MP-7(��Sv/h),MP-8(��Sv/h),����,����(m/s),���J
2020/11/08,00:00,0.671,0.962,0.613,1.192,0.857,0.387,0.674,0.635,�k,5.2,��
2020/11/08,00:10,0.669,0.962,0.611,1.192,0.855,0.389,0.674,0.637,�k,5.6,��
2020/11/08,00:20,0.669,0.961,0.613,1.191,0.856,0.388,0.676,0.636,�k,5.8,��
2020/11/08,00:30,0.667,0.959,0.613,1.189,0.854,0.388,0.676,0.636,�k,5.9,��
2020/11/08,00:40,0.668,0.961,0.613,1.188,0.855,0.387,0.675,0.636,�k,5.8,��
2020/11/08,00:50,0.669,0.961,0.613,1.193,0.856,0.388,0.675,0.637,�k�k��,5.4,��
2020/11/08,01:00,0.668,0.961,0.613,1.191,0.853,0.387,0.676,0.637,�k�k��,4.7,��
2020/11/08,01:10,0.669,0.961,0.611,1.194,0.856,0.387,0.676,0.637,�k��,4.4,��
2020/11/08,01:20,0.668,0.960,0.610,1.191,0.855,0.387,0.675,0.634,�k��,4.9,��
2020/11/08,01:30,0.667,0.958,0.612,1.190,0.854,0.387,0.675,0.636,�k��,6.0,��
2020/11/08,01:40,0.669,0.959,0.613,1.190,0.855,0.388,0.676,0.636,�k��,6.2,��
2020/11/08,01:50,0.666,0.961,0.610,1.192,0.855,0.388,0.677,0.638,�k��,6.9,��
2020/11/08,02:00,0.666,0.960,0.611,1.190,0.854,0.390,0.675,0.638,�k��,6.9,��
2020/11/08,02:10,0.668,0.960,0.610,1.189,0.854,0.388,0.676,0.635,�k��,6.5,��
2020/11/08,02:20,0.668,0.959,0.611,1.190,0.854,0.388,0.675,0.637,�k�k��,8.1,��
2020/11/08,02:30,0.668,0.960,0.612,1.190,0.853,0.388,0.676,0.636,�k��,4.9,��
2020/11/08,02:40,0.669,0.958,0.611,1.192,0.854,0.388,0.676,0.637,�k��,6.2,��
2020/11/08,02:50,0.667,0.959,0.612,1.191,0.855,0.389,0.676,0.638,�k��,5.5,��
2020/11/08,03:00,0.669,0.961,0.612,1.190,0.854,0.388,0.674,0.637,�k,5.7,��
2020/11/08,03:10,0.669,0.957,0.610,1.191,0.852,0.387,0.674,0.637,�k,4.7,��
2020/11/08,03:20,0.670,0.961,0.611,1.188,0.855,0.389,0.674,0.637,�k,5.3,��
2020/11/08,03:30,0.669,0.959,0.612,1.192,0.854,0.388,0.678,0.636,�k�k��,5.2,��
2020/11/08,03:40,0.669,0.958,0.612,1.190,0.854,0.388,0.675,0.637,�k�k��,3.0,��
2020/11/08,03:50,0.668,0.959,0.613,1.192,0.854,0.387,0.676,0.636,�k,3.2,��
2020/11/08,04:00,0.668,0.960,0.612,1.193,0.855,0.386,0.676,0.636,�k��,4.1,��
2020/11/08,04:10,0.668,0.958,0.611,1.190,0.855,0.388,0.676,0.637,�k��,4.3,��
2020/11/08,04:20,0.669,0.960,0.611,1.194,0.853,0.389,0.676,0.637,�k��,6.0,��
2020/11/08,04:30,0.669,0.960,0.611,1.191,0.855,0.387,0.677,0.636,�k��,5.8,��
2020/11/08,04:40,0.668,0.958,0.610,1.191,0.853,0.388,0.677,0.637,�k�k��,5.3,��
2020/11/08,04:50,0.667,0.959,0.612,1.189,0.855,0.388,0.676,0.637,�k�k��,5.7,��
2020/11/08,05:00,0.668,0.960,0.610,1.188,0.855,0.387,0.675,0.636,�k,5.2,��
2020/11/08,05:10,0.669,0.958,0.610,1.192,0.854,0.387,0.676,0.638,�k�k��,7.0,��
2020/11/08,05:20,0.669,0.960,0.614,1.191,0.854,0.387,0.677,0.636,�k��,7.2,��
2020/11/08,05:30,0.668,0.960,0.611,1.189,0.854,0.389,0.677,0.636,�k��,8.9,��
2020/11/08,05:40,0.670,0.960,0.611,1.191,0.854,0.386,0.677,0.636,�k�k��,8.0,��
2020/11/08,05:50,0.670,0.961,0.611,1.192,0.856,0.386,0.676,0.637,�k��,7.8,��
2020/11/08,06:00,0.668,0.960,0.611,1.191,0.854,0.385,0.676,0.635,�k��,6.9,��
2020/11/08,06:10,0.671,0.963,0.612,1.193,0.853,0.386,0.675,0.639,�k�k��,4.9,��
2020/11/08,06:20,0.670,0.960,0.611,1.191,0.855,0.385,0.675,0.637,�k�k��,4.5,��
2020/11/08,06:30,0.670,0.960,0.612,1.192,0.856,0.387,0.677,0.637,�k�k��,7.1,��
2020/11/08,06:40,0.669,0.961,0.611,1.189,0.855,0.386,0.677,0.638,�k�k��,5.8,��
2020/11/08,06:50,0.668,0.960,0.612,1.192,0.857,0.388,0.677,0.638,�k��,5.8,��
2020/11/08,07:00,0.670,0.960,0.611,1.191,0.855,0.387,0.676,0.637,�k��,5.9,��
2020/11/08,07:10,0.668,0.963,0.614,1.192,0.855,0.387,0.675,0.637,�k��,6.6,��
2020/11/08,07:20,0.670,0.960,0.612,1.193,0.855,0.388,0.676,0.638,�k��,6.7,��
2020/11/08,07:30,0.671,0.960,0.610,1.191,0.855,0.388,0.676,0.637,���k��,6.2,��
2020/11/08,07:40,0.668,0.961,0.610,1.193,0.855,0.388,0.677,0.638,���k��,3.2,��
2020/11/08,07:50,0.670,0.959,0.611,1.192,0.853,0.385,0.677,0.636,���k��,1.2,��
2020/11/08,08:00,0.670,0.960,0.612,1.191,0.856,0.386,0.676,0.638,��쐼,1.5,��
2020/11/08,08:10,0.671,0.962,0.612,1.193,0.855,0.388,0.676,0.635,�쐼,1.1,��
2020/11/08,08:20,0.669,0.962,0.612,1.192,0.856,0.389,0.675,0.638,���쐼,2.0,��
2020/11/08,08:30,0.672,0.962,0.613,1.193,0.855,0.387,0.677,0.638,���쐼,1.2,��
2020/11/08,08:40,0.670,0.961,0.613,1.194,0.855,0.387,0.676,0.638,���쐼,2.8,��
2020/11/08,08:50,0.672,0.964,0.612,1.192,0.857,0.389,0.676,0.636,��,4.7,��
2020/11/08,09:00,0.670,0.961,0.613,1.192,0.856,0.388,0.675,0.638,��,5.9,��
2020/11/08,09:10,0.669,0.962,0.614,1.193,0.854,0.386,0.677,0.637,���k��,6.4,��
2020/11/08,09:20,0.668,0.960,0.612,1.191,0.854,0.388,0.675,0.637,��,5.4,��
2020/11/08,09:30,0.668,0.959,0.612,1.196,0.851,0.386,0.675,0.637,��,6.0,��
2020/11/08,09:40,0.668,0.960,0.612,1.193,0.851,0.385,0.674,0.636,���k��,6.6,��
2020/11/08,09:50,0.668,0.960,0.611,1.193,0.854,0.387,0.677,0.637,��,7.7,��
2020/11/08,10:00,0.670,0.961,0.610,1.194,0.855,0.385,0.676,0.636,���k��,6.1,��
2020/11/08,10:10,0.668,0.963,0.611,1.194,0.854,0.386,0.676,0.637,���k��,5.9,��
2020/11/08,10:20,0.671,0.962,0.611,1.195,0.856,0.386,0.677,0.636,��,3.7,��
2020/11/08,10:30,0.671,0.960,0.610,1.196,0.854,0.386,0.677,0.636,��,4.5,��
2020/11/08,10:40,0.670,0.963,0.613,1.194,0.856,0.387,0.678,0.635,�k��,4.7,��
2020/11/08,10:50,0.672,0.962,0.611,1.197,0.857,0.387,0.677,0.637,���k��,4.4,��
2020/11/08,11:00,0.670,0.962,0.612,1.197,0.854,0.387,0.677,0.637,�k��,3.1,��
2020/11/08,11:10,0.671,0.964,0.611,1.194,0.854,0.387,0.678,0.636,���k��,4.9,��
2020/11/08,11:20,0.671,0.963,0.611,1.196,0.855,0.388,0.678,0.637,���쐼,5.2,��
2020/11/08,11:30,0.670,0.963,0.612,1.197,0.857,0.389,0.677,0.637,���k��,6.7,��
2020/11/08,11:40,0.672,0.965,0.612,1.196,0.856,0.387,0.678,0.634,���k��,5.1,��
2020/11/08,11:50,0.673,0.965,0.612,1.198,0.858,0.388,0.678,0.635,��,1.7,��
2020/11/08,12:00,0.671,0.965,0.612,1.197,0.856,0.385,0.678,0.634,���k��,5.6,��
2020/11/08,12:10,0.670,0.966,0.612,1.196,0.857,0.387,0.678,0.635,���k��,6.5,��
2020/11/08,12:20,0.671,0.966,0.612,1.195,0.858,0.386,0.679,0.635,���k��,5.2,��
2020/11/08,12:30,0.673,0.964,0.613,1.198,0.857,0.387,0.677,0.636,���k��,6.5,��
2020/11/08,12:40,0.673,0.963,0.613,1.197,0.859,0.388,0.679,0.636,��,6.6,��
2020/11/08,12:50,0.674,0.966,0.613,1.196,0.857,0.387,0.677,0.635,���k��,7.7,��
2020/11/08,13:00,0.671,0.965,0.611,1.199,0.858,0.388,0.678,0.636,���k��,12.5,��
2020/11/08,13:10,0.670,0.967,0.613,1.199,0.860,0.387,0.677,0.635,���k��,10.0,��
2020/11/08,13:20,0.673,0.967,0.614,1.199,0.857,0.386,0.677,0.635,���k��,11.6,��
2020/11/08,13:30,0.673,0.966,0.612,1.198,0.861,0.388,0.678,0.633,���k��,10.7,��
2020/11/08,13:40,0.672,0.964,0.614,1.198,0.861,0.387,0.677,0.635,���k��,11.1,��
2020/11/08,13:50,0.672,0.965,0.613,1.197,0.859,0.389,0.680,0.636,���k��,11.4,��
2020/11/08,14:00,0.671,0.968,0.614,1.198,0.859,0.388,0.679,0.635,���k��,12.5,��
2020/11/08,14:10,0.673,0.965,0.614,1.200,0.858,0.387,0.677,0.634,���k��,11.0,��
2020/11/08,14:20,0.670,0.965,0.614,1.199,0.860,0.388,0.679,0.634,���k��,12.2,��
2020/11/08,14:30,0.672,0.966,0.611,1.200,0.857,0.390,0.679,0.635,��,9.1,��
2020/11/08,14:40,0.674,0.967,0.614,1.200,0.859,0.388,0.679,0.635,���k��,8.6,��
2020/11/08,14:50,0.673,0.965,0.614,1.200,0.859,0.388,0.680,0.636,��,8.3,��
2020/11/08,15:00,0.671,0.968,0.613,1.200,0.859,0.389,0.678,0.635,��,7.1,��
2020/11/08,15:10,0.672,0.967,0.614,1.201,0.858,0.387,0.678,0.635,���k��,8.2,��
2020/11/08,15:20,0.672,0.967,0.614,1.199,0.862,0.387,0.678,0.634,��,8.7,��
2020/11/08,15:30,0.672,0.971,0.613,1.200,0.861,0.388,0.679,0.636,��,8.5,��
2020/11/08,15:40,0.675,0.968,0.613,1.200,0.862,0.388,0.677,0.635,��,7.4,��
2020/11/08,15:50,0.671,0.968,0.613,1.201,0.860,0.389,0.677,0.636,���k��,5.9,��
2020/11/08,16:00,0.672,0.968,0.612,1.199,0.858,0.388,0.679,0.636,��,5.9,��
2020/11/08,16:10,0.672,0.967,0.614,1.200,0.858,0.390,0.678,0.635,���k��,6.9,��
2020/11/08,16:20,0.672,0.969,0.614,1.199,0.858,0.389,0.679,0.637,��,8.9,��
2020/11/08,16:30,0.674,0.971,0.613,1.199,0.860,0.390,0.678,0.639,���k��,7.5,��
2020/11/08,16:40,0.670,0.971,0.613,1.202,0.861,0.389,0.677,0.637,���k��,8.7,��
2020/11/08,16:50,0.673,0.971,0.613,1.199,0.860,0.390,0.679,0.638,���k��,8.4,��
2020/11/08,17:00,0.671,0.971,0.612,1.200,0.860,0.390,0.678,0.639,��,7.8,��
2020/11/08,17:10,0.672,0.969,0.614,1.200,0.858,0.389,0.677,0.636,��,7.7,��
2020/11/08,17:20,0.674,0.969,0.616,1.200,0.862,0.390,0.676,0.639,��,11.1,��
2020/11/08,17:30,0.675,0.970,0.615,1.199,0.861,0.388,0.677,0.638,��,8.3,��
2020/11/08,17:40,0.674,0.970,0.616,1.199,0.862,0.389,0.679,0.637,���k��,9.9,��
2020/11/08,17:50,0.674,0.968,0.615,1.199,0.859,0.388,0.678,0.637,���k��,7.1,��
2020/11/08,18:00,0.674,0.971,0.618,1.200,0.860,0.389,0.677,0.639,���k��,6.6,��
2020/11/08,18:10,0.674,0.970,0.615,1.201,0.860,0.387,0.677,0.638,���k��,7.0,��
2020/11/08,18:20,0.672,0.969,0.615,1.201,0.861,0.389,0.677,0.640,��,5.3,��
2020/11/08,18:30,0.674,0.969,0.614,1.200,0.864,0.388,0.678,0.638,���k��,7.7,��
2020/11/08,18:40,0.674,0.969,0.616,1.198,0.862,0.389,0.677,0.637,���k��,7.4,��
2020/11/08,18:50,0.673,0.967,0.614,1.201,0.862,0.388,0.677,0.638,���k��,7.0,��
2020/11/08,19:00,0.672,0.971,0.614,1.199,0.860,0.387,0.677,0.638,�k��,7.5,��
2020/11/08,19:10,0.674,0.970,0.616,1.200,0.860,0.390,0.677,0.638,�k��,6.0,��
2020/11/08,19:20,0.674,0.970,0.614,1.200,0.861,0.388,0.677,0.638,�k��,6.9,��
2020/11/08,19:30,0.673,0.971,0.614,1.201,0.862,0.389,0.678,0.639,�k��,6.1,��
2020/11/08,19:40,0.672,0.968,0.616,1.199,0.860,0.389,0.676,0.638,�k��,6.8,��
2020/11/08,19:50,0.674,0.970,0.614,1.202,0.861,0.388,0.677,0.638,�k��,3.9,��
2020/11/08,20:00,0.674,0.968,0.614,1.201,0.861,0.389,0.677,0.637,���k��,5.8,��
2020/11/08,20:10,0.672,0.970,0.615,1.200,0.862,0.389,0.677,0.636,���k��,4.0,��
2020/11/08,20:20,0.674,0.968,0.614,1.201,0.861,0.389,0.679,0.636,��,4.5,��
2020/11/08,20:30,0.672,0.968,0.614,1.199,0.862,0.390,0.677,0.637,�k�k��,2.0,��
2020/11/08,20:40,0.673,0.969,0.615,1.201,0.862,0.388,0.677,0.637,���k��,3.5,��
2020/11/08,20:50,0.672,0.967,0.615,1.199,0.862,0.388,0.676,0.639,�k��,2.5,��
2020/11/08,21:00,0.673,0.968,0.615,1.200,0.861,0.390,0.677,0.640,���k��,3.6,��
2020/11/08,21:10,0.673,0.968,0.615,1.200,0.861,0.388,0.678,0.638,��,5.8,��
2020/11/08,21:20,0.672,0.969,0.616,1.201,0.861,0.390,0.679,0.639,���k��,8.8,��
2020/11/08,21:30,0.672,0.971,0.613,1.199,0.862,0.389,0.677,0.639,��,11.3,��
2020/11/08,21:40,0.673,0.968,0.615,1.202,0.863,0.388,0.679,0.637,���k��,12.5,��
2020/11/08,21:50,0.675,0.968,0.614,1.200,0.862,0.388,0.676,0.638,���k��,10.8,��
2020/11/08,22:00,0.674,0.969,0.614,1.199,0.862,0.390,0.677,0.638,���k��,10.0,��
2020/11/08,22:10,0.674,0.970,0.614,1.200,0.862,0.389,0.676,0.640,���k��,9.9,��
2020/11/08,22:20,0.673,0.969,0.614,1.201,0.862,0.387,0.678,0.639,���k��,11.0,��
2020/11/08,22:30,0.673,0.970,0.615,1.199,0.862,0.388,0.677,0.638,���k��,10.0,��
2020/11/08,22:40,0.674,0.968,0.615,1.201,0.861,0.389,0.678,0.639,���k��,8.2,��
2020/11/08,22:50,0.671,0.968,0.613,1.200,0.862,0.389,0.677,0.637,�k��,8.2,��
2020/11/08,23:00,0.672,0.967,0.615,1.201,0.860,0.388,0.678,0.638,�k�k��,10.3,��
2020/11/08,23:10,0.672,0.969,0.613,1.199,0.861,0.388,0.676,0.639,�k�k��,10.2,��
2020/11/08,23:20,0.670,0.970,0.615,1.201,0.862,0.389,0.674,0.638,�k�k��,9.4,��
2020/11/08,23:30,0.673,0.967,0.617,1.202,0.861,0.388,0.676,0.640,�k�k��,6.7,��
2020/11/08,23:40,0.673,0.971,0.613,1.201,0.860,0.388,0.676,0.638,�k,5.5,��
2020/11/08,23:50,0.672,0.969,0.614,1.203,0.862,0.388,0.676,0.637,�k,6.5,��
